Location: Olsztyn
(53.7767°N, 20.4765°E)
Time: 08:16:45
(UTC+01:00)

Transit 4A - Pass Details

Date: 02 October 2022
Orbit: 871 x 972 km, 66.8° (Epoch: 06 December)

Event Time Altitude Azimuth Distance (km) Brightness Sun altitude
Exits shadow 02:06:51 29° 338° (NNW) 1,615 9.3 -35.8°
Maximum altitude 02:06:58 29° 340° (NNW) 1,614 9.4 -35.8°
Drops below altitude 10° 02:12:04 10° 39° (NE) 2,563 11.0 -35.4°
Sets 02:14:54 0° 51° (NE) 3,492 11.8 -35.1°
